TimeMDT,TemperatureF,Dew PointF,Humidity,Sea Level PressureIn,VisibilityMPH,Wind Direction,Wind SpeedMPH,Gust SpeedMPH,PrecipitationIn,Events,Conditions,WindDirDegrees,DateUTC
12:15 AM,42.8,35.6,76,30.11,10.0,SE,4.6,-,N/A,,Partly Cloudy,130,2012-11-03 06:15:00
12:35 AM,44.6,35.6,71,30.11,10.0,ESE,9.2,-,N/A,,Partly Cloudy,120,2012-11-03 06:35:00
12:55 AM,44.6,35.6,71,30.11,10.0,SSE,4.6,-,N/A,,Partly Cloudy,150,2012-11-03 06:55:00
1:15 AM,42.8,35.6,76,30.12,10.0,SSE,4.6,-,N/A,,Partly Cloudy,160,2012-11-03 07:15:00
1:35 AM,41.0,35.6,81,30.12,10.0,SE,5.8,-,N/A,,Clear,140,2012-11-03 07:35:00
1:55 AM,41.0,33.8,76,30.12,10.0,SE,3.5,-,N/A,,Clear,140,2012-11-03 07:55:00
2:15 AM,41.0,33.8,76,30.12,10.0,SE,3.5,-,N/A,,Clear,130,2012-11-03 08:15:00
2:35 AM,39.2,33.8,81,30.13,10.0,Calm,Calm,-,N/A,,Clear,0,2012-11-03 08:35:00
2:55 AM,37.4,33.8,87,30.13,10.0,Calm,Calm,-,N/A,,Clear,0,2012-11-03 08:55:00
3:15 AM,39.2,33.8,81,30.13,10.0,Calm,Calm,-,N/A,,Clear,0,2012-11-03 09:15:00
3:35 AM,39.2,33.8,81,30.14,10.0,Calm,Calm,-,N/A,,Clear,0,2012-11-03 09:35:00
3:55 AM,35.6,33.8,93,30.14,10.0,Calm,Calm,-,N/A,,Clear,0,2012-11-03 09:55:00
4:15 AM,35.6,33.8,93,30.14,10.0,Calm,Calm,-,N/A,,Clear,0,2012-11-03 10:15:00
4:35 AM,35.6,33.8,93,30.14,10.0,SSE,3.5,-,N/A,,Clear,150,2012-11-03 10:35:00
4:55 AM,39.2,35.6,87,30.14,10.0,Calm,Calm,-,N/A,,Clear,0,2012-11-03 10:55:00
5:15 AM,35.6,32.0,87,30.14,10.0,Calm,Calm,-,N/A,,Clear,0,2012-11-03 11:15:00
5:35 AM,33.8,33.8,100,30.14,10.0,ESE,4.6,-,N/A,,Clear,120,2012-11-03 11:35:00
5:55 AM,35.6,33.8,93,30.14,10.0,Calm,Calm,-,N/A,,Clear,0,2012-11-03 11:55:00
6:15 AM,35.6,32.0,87,30.15,10.0,SE,3.5,-,N/A,,Clear,130,2012-11-03 12:15:00
6:35 AM,39.2,33.8,81,30.15,10.0,Calm,Calm,-,N/A,,Clear,0,2012-11-03 12:35:00
6:55 AM,37.4,32.0,81,30.16,10.0,Calm,Calm,-,N/A,,Clear,0,2012-11-03 12:55:00
7:15 AM,39.2,33.8,81,30.16,10.0,ESE,4.6,-,N/A,,Partly Cloudy,110,2012-11-03 13:15:00
7:35 AM,37.4,35.6,93,30.17,10.0,SE,3.5,-,N/A,,Mostly Cloudy,130,2012-11-03 13:35:00
7:55 AM,39.2,35.6,87,30.18,10.0,ESE,3.5,-,N/A,,Overcast,120,2012-11-03 13:55:00
8:15 AM,41.0,35.6,81,30.18,10.0,SE,6.9,-,N/A,,Overcast,140,2012-11-03 14:15:00
8:35 AM,41.0,33.8,76,30.19,10.0,SE,8.1,-,N/A,,Overcast,140,2012-11-03 14:35:00
8:55 AM,41.0,33.8,76,30.20,10.0,SE,5.8,-,N/A,,Overcast,130,2012-11-03 14:55:00
9:15 AM,42.8,33.8,70,30.21,10.0,ESE,5.8,-,N/A,,Overcast,110,2012-11-03 15:15:00
9:35 AM,42.8,33.8,70,30.21,10.0,SE,4.6,-,N/A,,Overcast,130,2012-11-03 15:35:00
9:55 AM,44.6,35.6,71,30.22,10.0,SE,4.6,-,N/A,,Overcast,140,2012-11-03 15:55:00
10:15 AM,44.6,35.6,71,30.22,10.0,South,5.8,-,N/A,,Overcast,180,2012-11-03 16:15:00
10:35 AM,46.4,33.8,62,30.22,10.0,South,4.6,-,N/A,,Overcast,170,2012-11-03 16:35:00
10:55 AM,46.4,35.6,66,30.23,10.0,SE,6.9,-,N/A,,Overcast,140,2012-11-03 16:55:00
11:15 AM,48.2,32.0,54,30.22,10.0,SSE,6.9,-,N/A,,Overcast,150,2012-11-03 17:15:00
11:35 AM,50.0,33.8,54,30.22,10.0,South,6.9,-,N/A,,Overcast,170,2012-11-03 17:35:00
11:55 AM,50.0,32.0,50,30.23,10.0,SSE,6.9,-,N/A,,Overcast,160,2012-11-03 17:55:00
12:15 PM,51.8,32.0,47,30.23,10.0,SE,8.1,-,N/A,,Overcast,140,2012-11-03 18:15:00
12:35 PM,53.6,32.0,44,30.23,10.0,SE,8.1,-,N/A,,Overcast,140,2012-11-03 18:35:00
12:55 PM,55.4,32.0,41,30.23,10.0,SSE,6.9,-,N/A,,Overcast,160,2012-11-03 18:55:00
1:15 PM,55.4,32.0,41,30.22,10.0,SSE,5.8,-,N/A,,Overcast,160,2012-11-03 19:15:00
1:35 PM,57.2,32.0,38,30.21,10.0,SE,5.8,-,N/A,,Overcast,140,2012-11-03 19:35:00
1:55 PM,59.0,32.0,36,30.21,10.0,South,6.9,-,N/A,,Overcast,170,2012-11-03 19:55:00
2:15 PM,57.2,32.0,38,30.21,10.0,South,6.9,-,N/A,,Overcast,190,2012-11-03 20:15:00
2:35 PM,59.0,32.0,36,30.20,10.0,SSE,5.8,-,N/A,,Scattered Clouds,160,2012-11-03 20:35:00
2:55 PM,60.8,32.0,34,30.19,10.0,SE,4.6,-,N/A,,Partly Cloudy,140,2012-11-03 20:55:00
3:15 PM,62.6,32.0,32,30.19,10.0,East,4.6,-,N/A,,Mostly Cloudy,90,2012-11-03 21:15:00
3:35 PM,62.6,32.0,32,30.19,10.0,South,3.5,-,N/A,,Overcast,180,2012-11-03 21:35:00
3:55 PM,62.6,32.0,32,30.19,10.0,South,3.5,-,N/A,,Overcast,190,2012-11-03 21:55:00
4:15 PM,62.6,32.0,32,30.18,10.0,SE,4.6,-,N/A,,Partly Cloudy,140,2012-11-03 22:15:00
4:35 PM,62.6,32.0,32,30.19,10.0,SSW,3.5,-,N/A,,Clear,210,2012-11-03 22:35:00
4:55 PM,62.6,32.0,32,30.19,10.0,Calm,Calm,-,N/A,,Clear,0,2012-11-03 22:55:00
5:35 PM,59.0,35.6,42,30.19,10.0,West,3.5,-,N/A,,Partly Cloudy,280,2012-11-03 23:35:00
5:55 PM,59.0,35.6,42,30.19,10.0,NW,4.6,-,N/A,,Clear,320,2012-11-03 23:55:00
6:15 PM,57.2,35.6,44,30.19,10.0,West,4.6,-,N/A,,Clear,260,2012-11-04 00:15:00
6:35 PM,57.2,35.6,44,30.20,10.0,WNW,3.5,-,N/A,,Clear,290,2012-11-04 00:35:00
6:55 PM,57.2,35.6,44,30.20,10.0,NW,4.6,-,N/A,,Clear,320,2012-11-04 00:55:00
7:15 PM,55.4,35.6,47,30.21,10.0,NNW,4.6,-,N/A,,Clear,340,2012-11-04 01:15:00
7:55 PM,53.6,37.4,54,30.21,10.0,North,3.5,-,N/A,,Clear,350,2012-11-04 01:55:00
8:15 PM,53.6,37.4,54,30.22,10.0,North,5.8,-,N/A,,Clear,10,2012-11-04 02:15:00
9:35 PM,50.0,41.0,71,30.22,10.0,SW,3.5,-,N/A,,Clear,230,2012-11-04 03:35:00
10:15 PM,48.2,41.0,76,30.23,10.0,Calm,Calm,-,N/A,,Clear,0,2012-11-04 04:15:00
10:35 PM,48.2,41.0,76,30.23,10.0,Calm,Calm,-,N/A,,Clear,0,2012-11-04 04:35:00
10:55 PM,46.4,41.0,81,30.23,10.0,Calm,Calm,-,N/A,,Clear,0,2012-11-04 04:55:00
11:15 PM,46.4,41.0,81,30.23,10.0,SSE,3.5,-,N/A,,Clear,150,2012-11-04 05:15:00
11:35 PM,46.4,41.0,81,30.24,10.0,Calm,Calm,-,N/A,,Clear,0,2012-11-04 05:35:00
11:55 PM,46.4,41.0,81,30.25,10.0,Calm,Calm,-,N/A,,Clear,0,2012-11-04 05:55:00